Weather History for Orlando International, FL

Change the Weather History Date:

Friday, February 22, 2013

  Actual Average Record
Temperature  
Mean Temperature 73 °F 64 °F  
Max Temperature 87 °F 75 °F 88 °F (2003)
Min Temperature 58 °F 53 °F 35 °F (1977)
Degree Days  
Heating Degree Days 0 3  
Month to date heating degree days 86 97  
Since 1 July heating degree days 308 481  
Cooling Degree Days 8 2  
Month to date cooling degree days 61 44  
Year to date cooling degree days 162 89  
Growing Degree Days 23 (Base 50)    
Moisture  
Dew Point 64 °F    
Average Humidity 71    
Maximum Humidity 100    
Minimum Humidity 42    
Precipitation  
Precipitation 0.00 in 0.08 in 0.88 in (2012)
Month to date precipitation 0.50 1.84  
Year to date precipitation 0.74 4.19  
Sea Level Pressure  
Sea Level Pressure 30.06 in    
Wind  
Wind Speed 7 mph (SE)    
Max Wind Speed 17 mph    
Max Gust Speed 24 mph    
Visibility 6 miles    
Events Fog    
T = Trace of Precipitation, MM = Missing Value Source: NWS Daily Summary

Daily Weather History Graph

Daily Weather History Graph

Search for Another Location

Airport:

Trip Planner

Search our weather history database for the weather conditions in past years. The results will help you decide how hot, cold, wet, or windy it might be!

Date:

Astronomy

Feb. 22, 2013 Rise Set
Actual Time 6:56 AM EST 6:20 PM EST
Civil Twilight 6:33 AM EST 6:44 PM EST
Nautical Twilight 6:05 AM EST 7:12 PM EST
Astronomical Twilight 5:38 AM EST 7:39 PM EST
Moon 3:40 PM EST (2/22) 4:30 AM EST (2/22)
Length of Visible Light 12h 11m
Length of Day
11h 24m
Waxing Gibbous, 90% of the Moon is Illuminated
Feb 22
Waxing Gibbous
Feb 25
Full
Mar 4
Last Quarter
Mar 11
New
Mar 19
First Quarter

Hourly Weather History & Observations

Time (EST) Temp. Heat Index Dew Point Humidity Pressure Visibility Wind Dir Wind Speed Gust Speed Precip Events Conditions
12:53 AM 66.9 °F - 66.0 °F 97% 30.06 in 10.0 mi SSE 4.6 mph - N/A   Mostly Cloudy
1:53 AM 66.0 °F - 66.0 °F 100% 30.06 in 10.0 mi Calm Calm - N/A   Mostly Cloudy
2:53 AM 64.0 °F - 64.0 °F 100% 30.05 in 10.0 mi Calm Calm - N/A   Mostly Cloudy
3:41 AM 64.4 °F - 64.4 °F 100% 30.05 in 6.0 mi Calm Calm - N/A Fog Patches of Fog
3:53 AM 64.0 °F - 64.0 °F 100% 30.05 in 5.0 mi Calm Calm - N/A Fog Patches of Fog
4:49 AM 62.6 °F - 62.6 °F 100% 30.06 in 2.0 mi Calm Calm - N/A Fog Patches of Fog
4:53 AM 62.1 °F - 62.1 °F 100% 30.06 in 0.5 mi Calm Calm - N/A Fog Fog
5:10 AM 62.6 °F - 62.6 °F 100% 30.07 in 2.0 mi Calm Calm - N/A Fog Patches of Fog
5:26 AM 62.6 °F - 62.6 °F 100% 30.07 in 1.0 mi Calm Calm - N/A Fog Patches of Fog
5:45 AM 60.8 °F - 60.8 °F 100% 30.08 in 0.5 mi Calm Calm - N/A Fog Fog
5:53 AM 61.0 °F - 61.0 °F 100% 30.07 in 0.5 mi Calm Calm - N/A Fog Fog
6:02 AM 60.8 °F - 60.8 °F 100% 30.08 in 0.5 mi Calm Calm - N/A Fog Patches of Fog
6:15 AM 60.8 °F - 60.8 °F 100% 30.08 in 1.5 mi Calm Calm - N/A Fog Patches of Fog
6:37 AM 60.8 °F - 60.8 °F 100% 30.08 in 2.0 mi Calm Calm - N/A Fog Patches of Fog
6:49 AM 59.0 °F - 59.0 °F 100% 30.08 in 1.0 mi SE 3.5 mph - N/A Fog Patches of Fog
6:53 AM 59.0 °F - 59.0 °F 100% 30.08 in 1.0 mi Calm Calm - N/A Fog Patches of Fog
7:27 AM 60.8 °F - 60.8 °F 100% 30.09 in 1.0 mi Calm Calm - N/A Fog Patches of Fog
7:37 AM 62.6 °F - 62.6 °F 100% 30.09 in 1.5 mi Calm Calm - N/A Fog Patches of Fog
7:43 AM 62.6 °F - 62.6 °F 100% 30.10 in 4.0 mi Calm Calm - N/A   Mostly Cloudy
7:53 AM 64.9 °F - 64.9 °F 100% 30.10 in 7.0 mi Calm Calm - N/A Fog Patches of Fog
8:53 AM 71.1 °F - 68.0 °F 90% 30.11 in 10.0 mi South 8.1 mph - N/A   Mostly Cloudy
9:53 AM 75.9 °F - 66.9 °F 74% 30.10 in 10.0 mi SSE 12.7 mph 19.6 mph N/A   Scattered Clouds
10:53 AM 80.1 °F 82.3 °F 66.9 °F 64% 30.10 in 10.0 mi South 12.7 mph 20.7 mph N/A   Scattered Clouds
11:53 AM 81.0 °F 83.0 °F 66.0 °F 60% 30.08 in 10.0 mi SE 13.8 mph 21.9 mph N/A   Mostly Cloudy
12:53 PM 82.0 °F 83.8 °F 64.9 °F 56% 30.06 in 10.0 mi South 12.7 mph - N/A   Mostly Cloudy
1:53 PM 84.9 °F 85.9 °F 63.0 °F 48% 30.04 in 10.0 mi SSE 11.5 mph - N/A   Mostly Cloudy
2:53 PM 86.0 °F 86.3 °F 62.1 °F 44% 30.02 in 10.0 mi SE 11.5 mph - N/A   Mostly Cloudy
3:53 PM 86.0 °F 85.7 °F 60.1 °F 41% 30.01 in 10.0 mi South 8.1 mph 17.3 mph N/A   Mostly Cloudy
4:53 PM 84.9 °F 85.4 °F 62.1 °F 46% 30.00 in 10.0 mi ESE 10.4 mph - N/A   Mostly Cloudy
5:53 PM 79.0 °F - 69.1 °F 72% 30.01 in 10.0 mi East 12.7 mph - N/A   Mostly Cloudy
6:53 PM 75.0 °F - 70.0 °F 84% 30.03 in 10.0 mi ESE 11.5 mph - N/A   Mostly Cloudy
7:53 PM 73.0 °F - 69.1 °F 87% 30.05 in 10.0 mi ESE 11.5 mph - N/A   Scattered Clouds
8:53 PM 71.1 °F - 69.1 °F 93% 30.05 in 10.0 mi ESE 9.2 mph - N/A   Scattered Clouds
9:53 PM 72.0 °F - 70.0 °F 93% 30.06 in 10.0 mi SE 6.9 mph - N/A   Mostly Cloudy
10:53 PM 71.1 °F - 69.1 °F 93% 30.05 in 10.0 mi SSE 8.1 mph - N/A   Scattered Clouds
11:53 PM 70.0 °F - 68.0 °F 93% 30.04 in 10.0 mi South 9.2 mph - N/A   Scattered Clouds